Voltar ao catálogo

FREGAT DEB

LostLEO
NORAD 52963·DEBRIS·🇷🇺 Russia

Lançado Jul 18, 2011 de Baikonur Cosmodrome

Loading…

Próximas Passagens (próximas 24 horas)

TLE

ObsoletoSource: Space-Track

Época: May 12, 2026, 19:00 UTC

1 52963U 11037PS  26132.79203815  .00171061 -26670-5  13205-2 0  9992
2 52963  26.3697 306.2658 0495664  43.6101 320.2551 14.88541762194568

Acompanhe FREGAT DEB em tempo real com AllMySat

Download on the App Store